Kuchera_Ratio
0.0 0.0 0.0 0.0 0.0 0.0 0.0 1.6 4.7 0.0 0.0 3.0 5.1 8.3 5.9 0.0 0.0 0.0 0.0 1.1 1.6 1.4 0.0 6.3 6.6 6.1 0.0 0.0 0.0 3.8 0.0 6.7 13.3 6.6 0.8 0.6 1.4 4.8 6.1 12.6 13.5 13.5 13.4 10.6
0.0 0.0 0.0 0.0 0.0 0.0 0.1 8.4 4.7 0.0 0.0 11.1 8.8 7.2 4.8 0.0 1.1 0.0 0.2 1.2 0.0 0.0 1.0 7.8 4.6 2.0 0.0 0.0 0.0 0.1 0.0 7.0 10.9 8.2 9.6 5.2 7.7 5.4 1.3 5.1 8.0 12.1 12.9 10.6
0.0 0.0 0.0 0.0 0.0 0.0 0.1 10.5 10.3 5.6 0.0 3.5 9.0 7.5 9.2 7.4 0.0 0.0 0.0 1.2 0.0 1.3 3.7 0.1 5.4 3.7 0.0 0.0 0.0 0.0 0.0 5.7 6.7 11.7 8.1 4.9 10.1 6.8 4.3 3.5 12.3 8.4 9.4 4.0
0.0 0.0 0.0 0.0 0.0 0.0 1.0 9.3 13.2 4.8 13.5 5.3 4.7 5.5 5.4 6.9 7.3 0.0 0.0 4.1 4.2 6.2 11.7 10.2 8.3 4.6 3.5 0.0 0.0 0.0 0.0 8.0 7.9 5.8 4.4 4.5 4.7 4.5 5.8 7.8 4.5 9.7 3.6 3.8
0.0 0.0 0.0 0.0 0.0 0.0 4.3 12.7 11.3 8.2 11.8 8.3 9.8 8.7 9.0 9.9 10.5 8.9 9.8 10.0 11.8 9.9 9.0 7.6 10.7 9.8 8.3 6.4 4.1 3.3 2.7 9.5 8.2 9.7 3.3 2.5 5.6 2.5 3.9 3.5 2.1 2.6 0.7 1.1
0.0 0.0 0.0 0.0 0.0 0.0 5.6 7.8 7.5 10.8 13.3 14.3 14.2 14.1 13.1 12.4 11.4 7.8 8.5 12.5 13.3 12.7 10.0 7.3 6.6 7.3 6.7 4.8 7.2 8.6 9.6 11.1 12.4 13.9 7.3 5.6 11.9 5.4 2.9 1.1 0.0 0.0 5.9 0.0
0.0 0.0 0.0 0.0 0.0 0.0 1.5 3.2 5.1 14.0 15.2 13.8 13.3 12.9 12.2 12.9 12.2 13.8 10.4 8.3 11.5 7.8 2.4 3.5 3.7 5.0 4.0 5.2 6.3 4.1 10.1 12.1 8.7 14.2 10.7 17.4 5.4 0.0 0.0 0.0 0.0 0.0 0.0 0.0
0.0 0.0 0.0 0.0 0.0 0.0 2.7 2.2 6.5 14.0 16.7 13.5 13.4 13.5 13.2 13.4 13.2 13.9 12.7 10.2 5.5 6.1 11.3 14.4 15.5 14.5 13.0 11.8 8.7 7.8 3.8 8.8 13.2 14.8 15.4 9.7 6.2 1.1 1.0 3.6 1.7 0.0 0.0 0.0
0.0 0.0 0.0 0.0 0.0 0.0 0.9 3.7 4.9 8.5 15.5 16.5 12.9 14.4 14.3 15.8 16.6 15.7 12.9 6.7 5.3 7.1 13.8 15.3 20.3 19.1 14.8 14.5 12.7 9.3 6.0 5.5 11.6 13.4 15.9 16.9 7.7 0.0 0.0 0.0 9.9 0.6 1.0 1.0
0.0 0.0 0.0 0.0 0.0 0.0 0.0 2.4 1.2 7.7 14.0 12.7 14.0 15.2 15.3 13.2 13.5 14.9 14.6 13.7 13.2 11.9 16.1 17.7 18.7 19.5 14.8 17.4 16.1 13.4 14.2 13.4 14.6 13.7 14.6 12.9 13.3 8.4 5.4 13.0 12.3 6.1 3.8 3.2
0.0 0.0 0.0 0.0 0.0 0.0 0.0 2.9 1.5 7.9 14.6 12.8 10.9 11.3 14.4 14.8 14.6 15.8 13.8 14.7 15.1 15.6 18.8 17.7 17.5 18.4 16.0 16.8 15.0 15.9 15.4 16.8 17.9 14.2 15.5 16.4 13.1 9.6 14.0 12.9 9.8 6.6 4.9 3.3
0.0 0.0 0.0 0.0 0.0 0.0 0.0 6.6 1.7 0.0 9.5 12.0 6.1 5.9 3.5 6.4 7.2 12.1 13.3 14.6 15.2 14.2 17.7 17.1 16.9 17.8 17.2 16.9 18.1 14.8 17.5 18.0 19.6 16.7 17.8 14.6 13.7 14.6 11.4 10.1 11.7 9.2 8.2 5.2
0.0 0.0 0.0 0.0 0.0 0.0 0.0 5.4 4.9 4.6 10.1 12.4 12.8 12.2 4.0 4.8 7.5 3.9 14.6 13.5 10.6 14.1 13.3 15.7 16.5 19.4 15.4 20.0 19.0 17.5 18.8 17.0 17.7 20.0 16.0 16.3 15.5 13.9 13.1 10.4 12.0 7.3 5.0 4.8
0.0 0.0 0.0 0.0 0.0 0.0 0.0 4.7 6.0 7.5 12.3 16.0 15.1 6.1 7.1 5.1 5.9 7.7 6.3 11.1 9.6 11.9 12.4 14.1 16.3 18.1 14.1 19.4 19.0 20.3 20.2 18.2 20.1 19.1 16.5 15.7 14.9 15.5 14.6 13.4 11.3 10.8 6.7 5.4
0.0 0.0 0.0 0.0 0.0 0.0 2.4 5.8 7.2 5.9 10.4 16.5 15.5 9.8 6.5 5.4 7.0 8.8 9.6 11.7 12.3 12.7 14.4 17.6 18.0 15.4 15.2 17.5 20.0 23.8 20.5 20.6 21.8 21.9 17.5 17.4 16.7 16.0 14.8 14.3 14.6 13.7 12.7 12.0
0.0 0.0 0.0 0.0 0.0 0.0 4.7 12.2 7.8 0.4 2.2 14.6 18.2 9.9 10.2 7.4 7.7 10.6 10.7 9.6 12.8 13.2 14.0 15.4 16.1 14.7 16.6 22.6 25.6 21.4 19.6 18.1 17.7 19.2 16.6 16.5 16.5 15.6 15.2 15.9 14.4 14.2 14.2 13.7
0.0 0.0 0.0 0.0 0.0 2.5 8.1 12.1 7.7 0.1 4.3 14.2 17.8 16.1 10.3 10.7 10.5 10.9 12.2 12.8 15.4 15.2 16.3 17.4 18.1 18.5 17.7 22.1 25.4 21.5 19.8 18.4 17.8 17.2 16.6 19.0 17.4 18.2 16.2 15.5 15.2 14.4 14.6 14.2
0.0 0.0 0.0 0.0 0.0 0.2 8.4 4.2 0.0 1.7 9.9 13.3 20.0 18.6 16.0 12.1 15.0 16.1 13.9 16.9 17.8 18.7 19.1 18.9 19.3 18.7 19.9 25.5 22.5 20.9 20.0 18.7 18.7 18.0 17.2 17.5 16.7 16.5 16.8 16.0 15.7 16.5 16.7 16.0
0.0 0.0 0.0 5.1 6.9 11.9 10.4 0.0 2.3 6.1 11.7 17.0 18.9 21.4 21.3 13.3 14.6 13.8 15.6 16.3 21.6 18.6 21.8 21.7 18.9 22.2 25.8 22.9 22.0 21.8 20.7 20.4 20.3 18.5 17.8 17.9 18.3 17.8 17.5 17.2 17.2 17.6 17.4 16.6
0.0 4.0 8.4 14.2 11.1 0.0 0.7 8.4 12.3 12.8 14.6 15.3 18.9 15.4 19.4 16.3 15.6 15.6 16.0 17.8 21.0 23.2 21.6 18.9 22.9 24.7 21.6 20.8 20.1 19.8 19.7 19.2 19.4 20.7 20.9 19.4 19.6 18.9 18.4 18.3 17.6 17.3 17.2 16.9
8.7 12.6 13.5 10.3 3.1 9.3 14.0 16.9 18.9 18.3 21.2 18.5 18.7 18.7 19.1 14.0 18.2 17.4 15.1 20.5 20.9 25.2 21.9 23.4 25.7 27.2 23.6 20.6 20.1 19.2 18.8 18.7 18.8 18.7 18.5 18.3 18.6 19.1 18.8 18.4 17.6 17.1 17.0 17.1
9.1 11.2 11.2 12.3 15.4 16.7 19.6 22.0 21.6 22.1 23.0 19.5 19.9 18.4 17.0 15.7 14.0 16.8 18.7 20.7 21.0 25.7 20.7 24.6 28.7 24.9 21.6 21.0 20.5 19.7 18.7 19.0 19.1 18.5 18.8 18.3 17.6 18.3 18.1 18.0 18.2 17.6 16.9 16.5
10.3 13.1 16.4 18.2 20.2 22.4 25.7 26.6 25.9 23.9 20.5 19.9 18.6 20.6 18.8 18.2 16.3 19.1 20.8 22.7 24.2 20.0 26.3 27.5 26.1 22.9 21.3 21.3 20.1 19.7 18.5 18.7 19.1 18.9 18.3 18.1 18.3 17.9 18.3 18.8 18.4 18.2 18.2 17.5
16.3 17.9 21.5 22.6 23.5 24.1 24.3 23.9 23.0 18.9 18.5 18.9 19.2 20.8 22.2 21.4 21.9 22.4 24.0 23.8 23.2 27.6 29.0 29.9 26.5 23.6 22.1 20.9 19.9 20.5 20.6 20.1 20.5 20.2 19.7 19.5 19.7 19.7 19.1 18.8 19.0 19.5 19.7 18.5
18.6 19.1 24.2 23.1 21.8 21.3 21.9 21.9 22.4 19.5 18.2 19.6 20.7 21.7 22.7 22.8 22.8 23.2 24.1 27.2 29.7 27.0 27.9 24.9 23.0 21.9 21.7 22.0 21.2 21.4 21.2 21.3 21.8 21.2 21.5 20.7 20.7 20.9 21.0 20.0 19.9 19.9 19.7 19.7
19.7 21.1 22.7 21.7 22.4 22.3 22.8 23.6 23.9 20.9 20.4 19.6 22.8 23.2 23.5 26.4 26.0 27.3 29.4 29.7 30.0 26.9 24.3 22.0 21.8 22.2 22.4 22.8 22.2 21.7 21.1 21.3 21.5 21.1 20.8 20.3 20.7 21.5 21.6 20.8 20.6 20.7 20.8 21.5
19.8 20.7 20.4 22.0 22.9 23.5 24.0 23.2 22.5 19.9 21.5 24.4 23.9 26.0 28.2 27.2 29.0 30.7 26.5 28.4 25.3 23.3 22.2 21.4 20.9 22.1 22.4 22.6 22.5 22.0 21.6 21.9 21.9 21.9 21.2 21.4 20.9 22.0 21.5 22.1 20.7 20.4 20.1 20.7